Location: Byszew
(52.1813°N, 19.2693°E)
Time: 11:01:43
(UTC+00:00)

METEOR 1-16 DEB - Visible Passes

Search period start: 30 November 2022 00:00
Search period end: 10 December 2022 00:00
Orbit: 802 x 851 km, 81.2° (Epoch: 29 November)

Date Brightness Start Highest point End Pass type
(mag) Time Alt. Az. Time Alt. Az. Time Alt. Az.
05 Dec ? 17:34:18 10° N 17:34:25 11° N 17:34:25 11° N visible
06 Dec ? 17:15:08 10° N 17:15:29 11° N 17:15:29 11° N visible
07 Dec ? 16:56:01 10° N 16:56:36 12° NNE 16:56:36 12° NNE visible
07 Dec ? 18:37:46 10° NNW 18:38:06 12° NNW 18:38:06 12° NNW visible
08 Dec ? 16:36:57 10° NNE 16:37:45 13° NNE 16:37:45 13° NNE visible
08 Dec ? 18:18:26 10° NNW 18:19:15 15° NNW 18:19:15 15° NNW visible
09 Dec ? 05:51:36 10° E 05:53:29 12° ENE 05:55:23 10° ENE visible
09 Dec ? 16:17:58 10° NNE 16:18:57 13° NNE 16:18:57 13° NNE visible
09 Dec ? 17:59:07 10° N 18:00:28 18° N 18:00:28 18° N visible
